User: anonymous   Login
Location: Unspecified
(50.1700°N, 6.8600°E)
Time: 00:55:28
(UTC+00:00)
Language:

Cosmos 371 Rocket - Orbit

View from above orbital plane
View from above orbital plane
View from above satellite
View from above satellite

Ground track
Ground track

The orbit data is extracted from the following two-line orbital elements,

1  4579U 70083B   19289.24521309 -.00000003  00000-0  56682-5 0  9994
2  4579  74.0009 263.4780 0009168  62.8405 297.3694 14.60456976599018
Epoch (UTC): 16 October 2019 05:53:06
Eccentricity: 0.0009168
inclination: 74.0009°
perigee height: 685 km
apogee height: 698 km
right ascension of ascending node: 263.4780°
argument of perigee: 62.8405°
revolutions per day: 14.60456976
mean anomaly at epoch: 297.3694°
orbit number at epoch: 59901

The dashed part of the orbit path shows where the satellite is in the earth's shadow,  

DLR